Wind_Speed
5 9 8 9 8 8 7 8 8 9 7 5 6 7 9 8 8 7 7 7 9 9 8 6 3 4 7 7 7 9 11 11 11 13 14 15 16 15 14 15 16 17 20 21 22 21 19 23 27
11 10 9 8 10 10 11 11 7 5 4 5 6 7 9 9 8 8 6 7 8 9 7 5 6 6 7 5 4 4 8 11 13 13 15 15 17 18 20 21 21 20 20 22 23 24 24 23 24
13 13 12 9 10 13 15 15 13 9 7 5 5 8 10 11 9 10 10 10 9 8 7 7 8 8 6 5 6 8 10 12 13 16 16 18 18 18 21 23 25 26 25 25 24 25 26 28 27
15 16 14 11 13 15 17 17 16 13 13 10 9 7 11 12 12 12 14 13 11 10 9 10 10 12 11 9 9 10 13 13 13 16 20 22 22 23 24 25 27 28 29 28 29 29 29 29 30
18 19 17 14 15 16 18 19 17 17 17 15 14 12 13 14 14 15 17 17 14 13 14 14 14 14 13 11 10 11 14 15 17 17 19 20 23 23 24 27 28 29 31 31 31 34 34 33 33
19 21 20 18 18 19 20 22 21 18 19 18 18 18 17 18 17 18 18 19 17 16 17 17 18 18 18 17 16 16 17 18 19 20 21 21 24 28 27 27 30 32 31 33 36 36 37 39 38
16 18 19 19 20 21 21 23 22 20 20 21 20 20 20 21 21 20 20 19 18 18 19 20 20 23 22 22 23 24 24 25 25 25 25 26 25 26 27 29 34 35 37 36 37 40 41 42 43
14 14 15 17 18 20 20 21 21 21 21 22 23 23 24 23 23 21 21 20 21 22 21 21 22 24 25 25 27 29 30 32 33 33 33 33 33 32 32 34 37 39 42 42 40 39 42 45 46
13 12 13 15 17 19 20 21 23 23 23 24 24 25 25 25 25 22 22 23 24 24 24 26 26 26 25 26 29 31 32 34 35 36 37 38 40 41 40 39 39 42 43 46 48 48 47 46 47
12 13 15 15 15 16 17 19 21 23 24 26 27 28 28 27 24 25 26 26 25 27 28 29 29 29 27 29 31 32 35 36 37 38 38 40 42 44 45 46 46 44 46 48 51 54 53 51 50
13 14 16 18 19 19 20 21 20 21 22 24 26 26 26 26 28 29 30 28 29 28 30 31 31 30 31 32 34 35 38 40 41 42 42 43 44 46 46 49 50 50 51 53 54 55 57 59 55
15 15 16 17 18 20 21 22 22 22 23 24 27 28 27 29 31 33 32 31 31 33 31 33 32 33 33 35 37 40 42 44 43 43 43 43 48 50 51 52 54 54 55 59 61 62 63 62 62
19 18 18 19 20 23 24 25 26 24 26 25 26 26 27 30 32 33 34 33 34 35 34 32 33 33 35 37 40 43 44 46 47 48 48 48 50 52 55 57 57 60 62 65 67 68 69 68 65
21 23 25 26 26 25 23 28 28 27 26 28 30 30 31 32 35 36 36 37 37 36 35 35 35 36 38 39 39 41 46 48 49 50 51 52 53 54 52 55 59 64 67 69 73 73 72 70 69
23 24 29 32 33 29 23 25 29 27 28 30 30 31 33 35 36 36 37 38 37 37 39 40 38 38 37 40 42 47 45 49 51 52 54 55 55 52 56 62 68 72 72 73 72 69 70 69 69
29 28 29 33 33 30 28 21 33 31 30 32 34 34 35 37 37 38 38 38 38 40 39 40 40 39 40 42 44 48 49 49 52 55 59 59 55 57 63 71 75 74 72 71 70 65 65 67 67
31 33 33 34 38 37 35 25 32 30 30 34 33 34 35 38 39 40 40 40 39 41 42 43 40 41 42 43 48 49 51 53 55 58 59 57 60 62 67 76 76 66 66 65 64 66 74 75 73
36 37 36 37 42 41 39 34 31 35 35 38 38 41 39 39 41 41 42 42 42 40 40 42 43 42 43 48 49 51 54 54 56 58 57 60 65 68 76 79 72 65 63 63 70 76 74 72 68
42 42 41 39 43 48 43 43 35 36 37 41 42 42 40 43 45 44 43 44 43 44 45 45 46 46 47 49 51 53 54 56 58 57 60 65 70 76 82 81 71 62 61 66 71 74 73 69 70
45 46 44 46 46 50 49 47 42 35 37 37 43 41 44 43 43 43 44 43 45 47 48 49 48 49 50 54 54 55 55 55 57 59 64 70 76 84 84 78 68 64 65 71 74 75 74 70 73
48 49 49 51 51 50 53 53 47 34 38 41 36 40 41 43 44 43 43 42 44 46 46 46 47 49 54 57 54 56 56 57 60 63 69 77 82 86 80 74 68 68 73 75 76 76 76 75 79
52 48 51 53 55 56 52 59 50 44 40 44 42 44 44 45 45 46 46 45 45 47 45 47 51 55 58 56 56 56 57 58 63 68 75 82 87 86 80 74 71 73 78 79 77 80 81 81 78
51 51 53 54 54 57 52 56 57 48 47 46 49 49 52 55 56 54 51 48 47 46 49 51 56 58 57 58 56 57 58 62 68 73 80 86 89 84 79 75 74 79 82 81 82 78 79 83 82
50 53 54 55 54 60 52 57 55 51 49 52 51 52 53 54 55 55 53 49 46 48 50 56 58 57 57 56 57 58 62 67 72 80 83 89 88 83 79 76 79 84 82 81 79 80 82 84 84
51 53 54 58 57 58 55 61 53 53 53 54 54 56 60 60 55 56 53 48 48 50 55 57 56 56 55 56 58 62 67 70 79 83 87 89 85 82 76 78 83 83 85 81 79 82 82 86 85
53 52 52 56 59 60 61 63 61 57 54 57 56 63 63 61 59 56 51 47 50 55 57 57 57 55 54 57 63 67 72 78 83 85 87 85 81 78 75 81 84 86 86 85 85 85 88 86 92
59 57 55 59 59 60 61 61 65 61 59 57 59 62 61 62 59 55 45 49 54 58 57 56 55 56 57 60 65 71 78 82 82 84 83 80 78 75 79 84 87 89 88 91 91 90 91 93 88
57 57 59 61 63 67 63 66 69 64 58 59 59 63 62 60 55 46 49 53 57 56 56 55 54 57 60 63 69 75 82 82 81 81 80 81 74 78 84 88 90 89 93 96 95 94 99 93 66
58 62 61 63 68 69 71 63 63 61 59 60 61 64 63 55 47 48 53 56 55 55 53 54 56 59 62 67 73 81 82 80 80 80 79 77 75 82 88 90 90 95 98 100 99 104 99 73 54
68 65 64 66 68 72 78 67 56 61 61 62 60 65 63 52 51 52 54 55 52 52 53 54 58 61 64 71 78 80 78 79 80 79 82 74 78 86 90 90 93 95 100 102 108 101 76 55 48
Wind_Direction
339 340 352 344 355 356 1 356 15 44 23 8 21 32 28 24 15 348 343 328 321 312 297 292 348 36 52 22 348 317 306 307 310 307 302 302 303 303 302 305 298 296 292 289 285 283 279 263 256
300 310 326 326 326 330 329 329 336 354 4 336 343 343 347 350 352 340 333 299 303 303 296 315 317 326 347 328 347 316 308 307 305 307 305 303 298 296 292 294 298 300 299 298 290 284 281 277 271
287 301 303 304 308 314 318 315 315 319 312 319 303 318 324 326 324 317 319 313 288 282 312 306 306 329 309 327 312 302 298 298 291 293 294 295 299 298 292 290 288 289 290 292 293 293 286 281 274
281 287 289 284 283 295 300 303 304 305 300 303 303 291 299 309 311 305 307 303 305 288 294 312 307 302 300 304 303 288 284 290 294 286 283 283 284 287 287 288 284 283 284 282 283 285 285 283 280
279 285 285 279 275 285 291 293 299 297 294 294 302 300 291 294 301 299 302 303 306 304 291 291 303 299 289 290 289 281 278 275 286 283 279 277 277 279 278 279 277 279 279 276 275 277 278 278 280
280 282 283 281 281 284 287 290 291 287 285 287 291 297 294 291 294 296 297 300 299 302 305 295 291 296 295 288 283 278 281 280 283 279 283 283 278 272 274 273 269 271 272 273 274 272 272 275 274
291 291 289 288 287 286 285 286 288 282 281 284 286 289 284 284 285 291 294 293 294 295 293 294 289 287 288 287 287 284 282 284 282 285 285 278 280 279 273 279 270 266 267 266 267 270 271 270 272
299 301 302 298 297 294 292 291 288 283 280 282 285 284 280 282 285 290 288 290 291 290 292 296 293 286 286 285 285 288 289 291 291 290 289 290 284 283 285 284 273 271 267 262 260 263 265 267 267
303 310 315 312 311 305 299 294 292 289 285 287 283 280 281 281 287 290 292 296 297 294 295 299 301 297 291 292 293 291 290 289 288 287 287 290 291 286 285 283 284 275 270 268 265 261 262 261 264
331 327 326 328 331 331 328 320 311 302 296 288 286 284 285 289 292 291 293 295 296 296 294 297 297 294 291 296 295 297 302 298 295 293 291 290 290 287 281 282 285 278 273 272 268 262 260 261 258
344 335 330 329 331 331 329 325 319 311 301 296 294 295 294 294 291 292 295 295 299 299 294 292 290 291 292 293 294 294 303 301 296 293 290 291 290 287 286 284 286 286 279 275 275 271 264 259 259
332 333 333 332 330 329 330 327 318 313 308 301 296 292 293 292 290 291 292 293 291 292 290 290 292 294 291 293 294 292 297 301 297 294 293 294 290 285 282 282 282 282 282 282 278 275 271 265 260
322 322 320 319 320 323 328 325 321 320 311 307 302 295 287 283 284 285 288 289 288 290 289 289 293 294 294 295 294 294 296 299 296 295 295 296 296 292 286 283 282 282 283 281 278 277 275 272 268
315 312 313 311 309 308 317 318 318 316 314 307 302 299 295 290 288 288 289 289 289 290 295 298 295 295 297 297 296 296 297 298 298 298 297 295 293 289 289 288 286 282 278 277 277 277 280 277 273
313 310 311 311 311 309 313 314 314 317 319 311 305 296 291 289 289 290 291 292 293 293 297 296 294 293 293 295 296 299 297 297 299 298 299 294 289 291 294 295 287 280 281 285 288 289 286 282 277
310 308 306 306 306 303 306 318 311 317 319 314 309 301 297 291 290 291 293 293 292 291 292 292 292 291 293 294 299 300 298 298 301 299 299 291 290 296 299 295 287 288 291 292 292 286 279 276 275
308 307 307 306 304 304 302 307 307 310 317 319 314 307 302 298 293 289 290 289 290 293 294 294 293 293 294 297 301 301 302 304 302 300 296 291 295 295 296 293 293 298 299 294 287 286 285 286 284
305 306 306 305 300 301 304 304 308 308 312 316 317 317 309 302 296 296 292 290 291 292 293 296 293 292 294 299 301 302 304 303 301 296 292 295 296 296 294 294 299 300 296 291 286 285 286 285 281
302 303 306 302 299 300 303 304 307 306 311 313 310 314 309 304 299 300 296 292 292 290 291 297 294 293 294 299 298 302 305 303 298 293 295 298 297 292 291 294 301 296 291 292 289 288 287 284 282
296 299 304 303 301 299 300 302 301 305 309 308 308 308 306 299 298 299 297 294 292 291 291 295 292 293 297 300 300 304 305 298 295 296 297 298 298 293 295 301 301 295 295 293 288 289 289 284 281
293 298 299 302 302 300 299 300 301 300 307 306 311 307 304 304 299 298 297 296 296 295 293 291 293 297 303 305 304 306 302 300 295 298 300 299 294 292 301 304 301 297 297 294 293 291 292 287 286
292 295 297 299 300 301 299 302 302 307 309 309 311 312 306 305 303 299 297 298 297 298 294 292 298 304 306 305 306 303 301 296 297 299 300 297 295 299 304 305 300 297 298 298 295 295 295 293 291
293 294 295 296 297 297 301 297 301 308 312 314 312 315 311 306 306 306 302 301 299 301 300 300 303 307 305 307 304 301 297 296 299 301 300 297 299 306 308 305 299 300 301 300 299 296 298 299 298
293 294 293 296 295 294 301 296 295 306 307 313 313 313 305 304 301 306 305 303 298 300 301 305 306 306 307 305 303 300 297 298 299 300 300 298 303 308 307 303 302 302 302 302 301 300 303 303 298
293 292 294 293 293 296 297 293 301 302 302 307 313 312 306 302 302 305 305 304 300 300 304 305 304 307 306 304 300 296 298 297 301 302 299 301 307 308 305 304 305 305 306 306 304 304 304 303 300
290 292 290 291 293 296 294 299 303 299 304 306 307 306 305 302 304 304 303 302 301 305 306 306 307 306 304 302 301 300 300 300 303 300 302 305 307 307 305 308 309 309 309 309 306 307 305 303 304
287 289 289 288 288 289 295 302 296 298 303 306 305 301 301 301 304 303 303 303 304 304 305 306 305 304 302 301 300 300 302 304 301 303 306 307 309 308 311 311 312 312 311 311 309 307 308 305 305
286 287 285 287 288 287 298 298 297 304 306 308 306 304 300 303 301 303 302 303 303 303 304 304 303 301 300 299 301 302 304 301 304 307 309 310 309 311 312 315 314 313 312 311 309 308 307 306 295
282 284 289 287 287 291 293 293 301 309 306 304 304 303 302 301 299 299 298 301 301 302 302 302 301 299 299 303 303 302 302 304 306 308 308 307 311 315 316 316 315 314 313 312 311 310 308 299 280
282 286 289 286 288 287 283 296 312 305 301 304 301 299 299 299 295 297 299 300 301 302 301 300 299 300 301 302 300 303 303 305 307 308 307 305 311 316 317 316 314 314 314 313 312 310 303 287 269
Height
5873 5874 5873 5872 5874 5871 5868 5867 5865 5865 5862 5860 5860 5860 5859 5858 5858 5859 5855 5853 5852 5851 5850 5849 5848 5847 5847 5846 5845 5844 5843 5842 5842 5841 5841 5841 5842 5841 5840 5839 5838 5838 5838 5838 5838 5838 5838 5839 5840
5873 5872 5872 5871 5871 5870 5868 5867 5866 5865 5863 5860 5859 5857 5857 5856 5856 5855 5854 5853 5852 5850 5849 5848 5847 5846 5845 5845 5844 5844 5843 5843 5842 5841 5840 5839 5839 5838 5838 5837 5837 5836 5835 5835 5835 5835 5835 5835 5835
5871 5871 5871 5869 5869 5868 5867 5864 5864 5864 5862 5860 5858 5857 5855 5855 5854 5852 5851 5851 5851 5850 5849 5847 5846 5845 5844 5843 5842 5842 5841 5841 5839 5839 5837 5837 5836 5835 5835 5834 5833 5832 5832 5832 5831 5831 5831 5831 5832
5868 5869 5869 5868 5866 5865 5864 5862 5861 5861 5860 5858 5857 5856 5854 5852 5850 5850 5849 5848 5848 5848 5847 5846 5845 5843 5842 5841 5840 5839 5838 5837 5836 5835 5833 5832 5832 5831 5831 5829 5828 5828 5827 5827 5827 5827 5827 5827 5827
5866 5866 5865 5865 5864 5863 5861 5859 5859 5857 5856 5855 5854 5853 5851 5849 5849 5847 5846 5846 5846 5845 5845 5844 5842 5841 5839 5837 5835 5834 5833 5832 5831 5829 5828 5827 5826 5826 5825 5824 5823 5822 5822 5821 5821 5821 5821 5821 5822
5864 5863 5862 5861 5860 5859 5858 5856 5855 5854 5853 5852 5851 5849 5848 5845 5844 5843 5843 5843 5843 5842 5841 5839 5837 5836 5835 5833 5831 5830 5829 5827 5826 5825 5823 5822 5821 5820 5819 5818 5818 5817 5816 5815 5814 5814 5814 5814 5815
5861 5860 5859 5857 5857 5855 5854 5852 5851 5850 5849 5848 5847 5846 5844 5842 5840 5840 5840 5839 5839 5837 5835 5834 5833 5831 5829 5827 5825 5824 5823 5822 5820 5818 5817 5817 5815 5813 5812 5812 5811 5810 5808 5808 5806 5805 5805 5805 5805
5858 5857 5856 5854 5853 5851 5850 5848 5846 5845 5845 5843 5842 5841 5839 5838 5837 5837 5835 5835 5834 5832 5830 5829 5828 5826 5824 5823 5821 5818 5816 5814 5813 5811 5810 5808 5807 5806 5804 5803 5802 5801 5800 5799 5798 5797 5797 5796 5796
5855 5854 5853 5851 5850 5849 5847 5845 5843 5841 5840 5838 5837 5836 5835 5833 5832 5831 5831 5830 5829 5828 5826 5824 5821 5818 5817 5816 5814 5812 5810 5808 5806 5805 5802 5800 5797 5796 5794 5793 5792 5792 5791 5790 5788 5787 5787 5786 5786
5853 5851 5850 5848 5847 5846 5845 5843 5840 5838 5835 5833 5832 5831 5829 5828 5827 5826 5825 5824 5823 5821 5819 5817 5815 5814 5812 5810 5807 5805 5802 5799 5797 5795 5793 5791 5789 5786 5784 5782 5781 5779 5778 5777 5778 5776 5775 5775 5775
5851 5849 5847 5845 5843 5842 5842 5840 5838 5835 5832 5829 5828 5826 5825 5824 5821 5820 5819 5818 5817 5815 5812 5809 5807 5805 5803 5801 5799 5795 5794 5792 5790 5788 5786 5783 5779 5776 5773 5770 5767 5766 5765 5764 5763 5762 5762 5762 5762
5849 5846 5844 5842 5840 5839 5837 5836 5834 5832 5830 5826 5823 5821 5820 5818 5816 5814 5813 5812 5809 5807 5805 5803 5800 5797 5795 5792 5790 5788 5786 5784 5781 5777 5774 5771 5769 5765 5762 5758 5755 5753 5750 5749 5748 5747 5746 5747 5747
5845 5843 5841 5839 5837 5835 5833 5830 5828 5827 5824 5822 5819 5816 5813 5811 5809 5807 5806 5805 5803 5800 5797 5795 5793 5790 5787 5784 5782 5778 5775 5772 5768 5765 5762 5760 5755 5752 5749 5746 5742 5738 5735 5731 5728 5726 5727 5728 5729
5843 5839 5836 5835 5833 5832 5831 5826 5823 5822 5820 5816 5812 5809 5807 5804 5801 5800 5798 5795 5793 5791 5789 5786 5783 5780 5777 5774 5771 5768 5765 5761 5756 5752 5748 5745 5740 5737 5734 5730 5726 5721 5718 5714 5711 5708 5707 5708 5709
5841 5838 5833 5830 5827 5824 5826 5823 5819 5818 5815 5811 5807 5803 5799 5796 5794 5792 5789 5787 5785 5782 5779 5776 5774 5770 5766 5763 5760 5757 5751 5747 5743 5739 5736 5730 5727 5722 5718 5714 5708 5703 5700 5696 5693 5691 5689 5688 5687
5835 5834 5831 5826 5822 5819 5818 5821 5812 5810 5808 5804 5800 5796 5793 5789 5786 5784 5782 5779 5777 5774 5771 5768 5765 5762 5758 5754 5750 5746 5740 5735 5730 5725 5721 5716 5710 5706 5701 5694 5687 5683 5682 5679 5675 5671 5670 5668 5667
5829 5825 5824 5821 5815 5812 5809 5814 5808 5805 5803 5798 5793 5790 5787 5783 5779 5776 5774 5771 5770 5767 5764 5760 5756 5753 5749 5745 5740 5734 5728 5722 5716 5711 5705 5701 5696 5689 5682 5676 5668 5665 5663 5660 5655 5651 5647 5646 5644
5821 5818 5816 5813 5807 5804 5802 5802 5803 5796 5794 5790 5785 5781 5778 5774 5770 5767 5765 5763 5761 5758 5754 5751 5747 5742 5738 5733 5727 5721 5714 5709 5703 5696 5690 5685 5678 5670 5662 5654 5649 5646 5643 5640 5636 5631 5628 5624 5622
5812 5809 5807 5806 5800 5791 5794 5790 5795 5790 5786 5782 5777 5773 5769 5764 5759 5757 5755 5753 5751 5747 5742 5739 5734 5730 5725 5720 5715 5708 5701 5695 5688 5681 5676 5669 5660 5652 5644 5638 5633 5628 5624 5620 5615 5610 5606 5603 5598
5803 5800 5800 5795 5791 5785 5782 5780 5782 5784 5780 5775 5770 5766 5760 5755 5751 5748 5745 5743 5739 5735 5730 5726 5722 5718 5714 5709 5703 5696 5689 5682 5674 5667 5660 5652 5641 5630 5622 5618 5613 5608 5605 5602 5595 5589 5585 5582 5576
5795 5792 5788 5784 5780 5778 5771 5764 5770 5779 5771 5766 5763 5759 5753 5746 5740 5737 5733 5731 5727 5723 5719 5714 5710 5706 5700 5694 5688 5681 5675 5668 5662 5654 5645 5633 5622 5610 5604 5599 5591 5586 5584 5579 5572 5565 5559 5558 5556
5784 5785 5779 5775 5770 5764 5765 5744 5753 5759 5761 5755 5752 5749 5742 5735 5730 5726 5722 5719 5716 5711 5707 5702 5697 5692 5685 5679 5673 5667 5661 5656 5648 5640 5628 5614 5601 5591 5585 5578 5572 5567 5562 5555 5548 5540 5534 5525 5525
5775 5772 5769 5765 5761 5753 5756 5746 5735 5743 5744 5743 5739 5734 5727 5720 5715 5712 5709 5706 5702 5698 5693 5687 5681 5675 5669 5664 5659 5653 5647 5639 5631 5622 5610 5596 5584 5574 5565 5559 5554 5548 5539 5531 5522 5514 5505 5496 5490
5766 5760 5756 5753 5750 5741 5747 5737 5724 5734 5731 5730 5726 5722 5714 5708 5703 5699 5695 5691 5687 5683 5678 5673 5666 5660 5654 5649 5643 5637 5630 5622 5612 5600 5588 5575 5565 5556 5545 5540 5534 5526 5517 5508 5498 5488 5479 5468 5460
5753 5749 5744 5739 5736 5734 5732 5720 5721 5723 5720 5718 5714 5707 5699 5693 5691 5686 5682 5677 5674 5669 5663 5658 5651 5645 5639 5633 5626 5619 5612 5603 5593 5580 5568 5558 5550 5540 5531 5522 5514 5504 5493 5482 5472 5463 5453 5442 5431
5740 5739 5735 5726 5724 5723 5716 5706 5708 5705 5710 5707 5702 5692 5685 5678 5676 5673 5668 5665 5660 5656 5650 5643 5637 5630 5624 5617 5609 5601 5593 5583 5571 5559 5548 5539 5530 5523 5515 5505 5492 5478 5466 5455 5444 5436 5426 5415 5404
5728 5726 5723 5714 5716 5712 5706 5700 5692 5698 5700 5694 5689 5679 5673 5667 5663 5658 5655 5650 5645 5640 5634 5628 5622 5616 5608 5601 5592 5583 5573 5562 5551 5539 5529 5521 5512 5504 5495 5482 5471 5455 5441 5429 5417 5407 5396 5386 5375
5716 5714 5709 5704 5698 5691 5692 5683 5674 5685 5685 5678 5671 5664 5658 5654 5650 5647 5642 5637 5631 5625 5619 5613 5606 5599 5592 5585 5575 5564 5554 5543 5532 5521 5511 5502 5493 5483 5472 5459 5445 5432 5417 5401 5388 5378 5366 5355 5348
5700 5694 5695 5691 5682 5677 5674 5665 5671 5673 5668 5664 5658 5652 5646 5642 5637 5633 5628 5623 5616 5610 5604 5597 5591 5584 5576 5568 5558 5547 5536 5525 5514 5504 5494 5484 5474 5461 5449 5436 5421 5405 5390 5374 5359 5346 5333 5324 5323
5682 5684 5683 5673 5670 5661 5648 5651 5666 5655 5649 5648 5645 5637 5632 5630 5625 5619 5613 5608 5601 5595 5588 5582 5574 5567 5560 5551 5541 5529 5519 5509 5497 5486 5474 5462 5452 5439 5424 5409 5394 5380 5363 5345 5327 5313 5302 5298 5300